Weather History for St. George, UT

Change the Weather History Date:

Tuesday, November 20, 2012

  Actual Average Record
Temperature  
Mean Temperature 52 °F -  
Max Temperature 64 °F 61 °F 76 °F (1936)
Min Temperature 39 °F 31 °F 15 °F (1956)
Degree Days  
Heating Degree Days 14    
Growing Degree Days 2 (Base 50)    
Moisture  
Dew Point 29 °F    
Average Humidity 45    
Maximum Humidity 65    
Minimum Humidity 28    
Precipitation  
Precipitation 0.00 in - - ()
Sea Level Pressure  
Sea Level Pressure 30.23 in    
Wind  
Wind Speed 2 mph (South)    
Max Wind Speed 8 mph    
Max Gust Speed -    
Visibility 10 miles    
Events      
Averages and records for this station are not official NWS values.
T = Trace of Precipitation, MM = Missing Value Source: NWS Daily Summary

Daily Weather History Graph

Daily Weather History Graph

Search for Another Location

Airport:

Trip Planner

Search our weather history database for the weather conditions in past years. The results will help you decide how hot, cold, wet, or windy it might be!

Date:

Astronomy

Nov. 20, 2012 Rise Set
Actual Time 7:18 AM MST 5:21 PM MST
Civil Twilight 6:50 AM MST 5:49 PM MST
Nautical Twilight 6:19 AM MST 6:20 PM MST
Astronomical Twilight 5:48 AM MST 6:51 PM MST
Moon 1:00 PM MST (11/20) No Moon Set
Length of Visible Light 10h 58m
Length of Day
10h 02m
First Quarter, 52% of the Moon is Illuminated
Nov 20
First Quarter
Nov 28
Full
Dec 6
Last Quarter
Dec 13
New
Dec 19
First Quarter

Hourly Weather History & Observations

Time (MST) Temp. Windchill Dew Point Humidity Pressure Visibility Wind Dir Wind Speed Gust Speed Precip Events Conditions
12:15 AM 46.4 °F - 30.2 °F 53% 30.30 in 10.0 mi Calm Calm - N/A   Clear
12:35 AM 46.4 °F 44.3 °F 30.2 °F 53% 30.31 in 10.0 mi South 4.6 mph - N/A   Clear
12:55 AM 44.6 °F 40.2 °F 30.2 °F 57% 30.31 in 10.0 mi SE 8.1 mph - N/A   Clear
1:15 AM 44.6 °F 43.1 °F 30.2 °F 57% 30.31 in 10.0 mi South 3.5 mph - N/A   Clear
1:35 AM 46.4 °F 45.2 °F 30.2 °F 53% 30.30 in 10.0 mi East 3.5 mph - N/A   Clear
1:55 AM 44.6 °F 40.2 °F 30.2 °F 57% 30.30 in 10.0 mi SE 8.1 mph - N/A   Clear
2:55 AM 44.6 °F - 28.4 °F 53% 30.31 in 10.0 mi Calm Calm - N/A   Clear
3:15 AM 44.6 °F 42.2 °F 28.4 °F 53% 30.30 in 10.0 mi SSW 4.6 mph - N/A   Clear
3:35 AM 42.8 °F 40.1 °F 28.4 °F 57% 30.30 in 10.0 mi SE 4.6 mph - N/A   Clear
3:55 AM 42.8 °F - 28.4 °F 57% 30.30 in 10.0 mi Calm Calm - N/A   Clear
4:15 AM 42.8 °F - 28.4 °F 57% 30.30 in 10.0 mi Calm Calm - N/A   Clear
4:35 AM 41.0 °F - 28.4 °F 61% 30.30 in 10.0 mi Calm Calm - N/A   Clear
4:55 AM 42.8 °F - 28.4 °F 57% 30.30 in 10.0 mi Calm Calm - N/A   Clear
5:15 AM 42.8 °F - 28.4 °F 57% 30.30 in 10.0 mi Calm Calm - N/A   Clear
5:35 AM 41.0 °F - 28.4 °F 61% 30.30 in 10.0 mi Calm Calm - N/A   Clear
5:55 AM 42.8 °F - 30.2 °F 61% 30.30 in 10.0 mi Calm Calm - N/A   Clear
6:35 AM 39.2 °F - 26.6 °F 61% 30.31 in 10.0 mi Calm Calm - N/A   Clear
6:55 AM 39.2 °F - 26.6 °F 61% 30.31 in 10.0 mi Calm Calm - N/A   Clear
7:15 AM 39.2 °F - 26.6 °F 61% 30.31 in 10.0 mi Calm Calm - N/A   Clear
7:35 AM 39.2 °F - 26.6 °F 61% 30.32 in 10.0 mi Calm Calm - N/A   Clear
7:55 AM 39.2 °F - 28.4 °F 65% 30.32 in 10.0 mi Calm Calm - N/A   Clear
8:15 AM 39.2 °F - 28.4 °F 65% 30.32 in 10.0 mi Calm Calm - N/A   Clear
8:35 AM 41.0 °F - 28.4 °F 61% 30.32 in 10.0 mi Calm Calm - N/A   Clear
8:55 AM 42.8 °F - 30.2 °F 61% 30.33 in 10.0 mi Calm Calm - N/A   Clear
9:15 AM 42.8 °F - 30.2 °F 61% 30.32 in 10.0 mi Calm Calm - N/A   Clear
9:35 AM 44.6 °F - 30.2 °F 57% 30.32 in 10.0 mi Calm Calm - N/A   Clear
9:55 AM 46.4 °F - 30.2 °F 53% 30.31 in 10.0 mi Calm Calm - N/A   Clear
10:15 AM 48.2 °F - 30.2 °F 50% 30.31 in 10.0 mi Calm Calm - N/A   Clear
10:35 AM 48.2 °F - 28.4 °F 46% 30.31 in 10.0 mi Calm Calm - N/A   Clear
10:55 AM 50.0 °F - 30.2 °F 47% 30.30 in 10.0 mi Calm Calm - N/A   Clear
11:15 AM 51.8 °F - 30.2 °F 44% 30.29 in 10.0 mi Calm Calm - N/A   Clear
11:35 AM 53.6 °F - 30.2 °F 41% 30.27 in 10.0 mi Calm Calm - N/A   Clear
11:55 AM 53.6 °F - 30.2 °F 41% 30.25 in 10.0 mi Calm Calm - N/A   Clear
12:15 PM 55.4 °F - 30.2 °F 38% 30.24 in 10.0 mi SSW 4.6 mph - N/A   Clear
12:35 PM 57.2 °F - 30.2 °F 36% 30.22 in 10.0 mi SSW 4.6 mph - N/A   Clear
12:55 PM 57.2 °F - 30.2 °F 36% 30.21 in 10.0 mi South 3.5 mph - N/A   Clear
1:15 PM 59.0 °F - 30.2 °F 34% 30.19 in 10.0 mi Calm Calm - N/A   Clear
1:35 PM 60.8 °F - 30.2 °F 31% 30.18 in 10.0 mi Calm Calm - N/A   Clear
1:55 PM 60.8 °F - 30.2 °F 31% 30.17 in 10.0 mi SW 3.5 mph - N/A   Clear
2:15 PM 60.8 °F - 30.2 °F 31% 30.16 in 10.0 mi West 3.5 mph - N/A   Clear
2:35 PM 62.6 °F - 30.2 °F 30% 30.15 in 10.0 mi SSW 4.6 mph - N/A   Clear
2:55 PM 62.6 °F - 30.2 °F 30% 30.14 in 10.0 mi WSW 3.5 mph - N/A   Clear
3:15 PM 64.4 °F - 30.2 °F 28% 30.14 in 10.0 mi SSW 5.8 mph - N/A   Clear
3:35 PM 64.4 °F - 30.2 °F 28% 30.13 in 10.0 mi South 4.6 mph - N/A   Clear
3:55 PM 64.4 °F - 30.2 °F 28% 30.13 in 10.0 mi SSW 4.6 mph - N/A   Clear
4:15 PM 64.4 °F - 30.2 °F 28% 30.13 in 10.0 mi SSW 4.6 mph - N/A   Clear
4:35 PM 64.4 °F - 30.2 °F 28% 30.13 in 10.0 mi SSW 3.5 mph - N/A   Clear
4:55 PM 64.4 °F - 30.2 °F 28% 30.13 in 10.0 mi South 4.6 mph - N/A   Clear
5:15 PM 62.6 °F - 30.2 °F 30% 30.12 in 10.0 mi SSE 4.6 mph - N/A   Clear
5:35 PM 60.8 °F - 28.4 °F 29% 30.12 in 10.0 mi SE 5.8 mph - N/A   Clear
5:55 PM 60.8 °F - 28.4 °F 29% 30.13 in 10.0 mi SSW 3.5 mph - N/A   Clear
6:15 PM 59.0 °F - 28.4 °F 31% 30.12 in 10.0 mi SSE 3.5 mph - N/A   Clear
6:35 PM 57.2 °F - 28.4 °F 33% 30.13 in 10.0 mi Calm Calm - N/A   Clear
6:55 PM 55.4 °F - 28.4 °F 36% 30.13 in 10.0 mi South 4.6 mph - N/A   Clear
7:15 PM 55.4 °F - 28.4 °F 36% 30.13 in 10.0 mi SSE 5.8 mph - N/A   Clear
7:35 PM 53.6 °F - 28.4 °F 38% 30.13 in 10.0 mi Calm Calm - N/A   Clear
7:55 PM 53.6 °F - 26.6 °F 35% 30.14 in 10.0 mi South 3.5 mph - N/A   Clear
8:15 PM 53.6 °F - 28.4 °F 38% 30.14 in 10.0 mi South 3.5 mph - N/A   Clear
8:35 PM 51.8 °F - 28.4 °F 41% 30.14 in 10.0 mi Calm Calm - N/A   Clear
8:55 PM 51.8 °F - 26.6 °F 38% 30.15 in 10.0 mi Calm Calm - N/A   Clear
9:15 PM 51.8 °F - 28.4 °F 41% 30.15 in 10.0 mi SE 3.5 mph - N/A   Clear
9:35 PM 51.8 °F - 28.4 °F 41% 30.15 in 10.0 mi SSE 3.5 mph - N/A   Clear
9:55 PM 51.8 °F - 26.6 °F 38% 30.15 in 10.0 mi SSE 3.5 mph - N/A   Clear
10:15 PM 51.8 °F - 26.6 °F 38% 30.16 in 10.0 mi Calm Calm - N/A   Clear
10:35 PM 48.2 °F - 26.6 °F 43% 30.16 in 10.0 mi Calm Calm - N/A   Clear
10:55 PM 48.2 °F - 26.6 °F 43% 30.16 in 10.0 mi Calm Calm - N/A   Clear
11:35 PM 48.2 °F - 24.8 °F 40% 30.16 in 10.0 mi Calm Calm - N/A   Clear
11:55 PM 46.4 °F 43.5 °F 24.8 °F 43% 30.16 in 10.0 mi South 5.8 mph - N/A   Clear